Regional Weather Roundup
Issued by NWS

Home | Current Version | Previous Version | Graphics & Text | Print | Product List | Glossary On
Versions: 1 2 3 4 5 6 7 8 9 10 11 12 13 14 15 16 17 18 19 20 21 22 23 24 25 26 27 28 29 30 31 32 33 34 35 36 37 38 39 40 41 42 43 44 45 46 47 48 49 50
561
ASUS45 KSLC 052110
RWRUT

UTAH REGIONAL WEATHER ROUNDUP
NATIONAL WEATHER SERVICE SALT LAKE CITY UT
200 PM MST MON DEC 05 2016

UTZ001>011-023>025-052200-

NORTHERN UTAH

CITY           SKY/WX    TMP DP  RH WIND       PRES   REMARKS
BRIGHAM CITY     N/A     32   4  30 W5        30.04S WCI  27
HILL AFB       SUNNY     28   4  35 N5        30.01F WCI  23
LOGAN          SUNNY    N/A N/A N/A VRB3      30.02F
OGDEN          SUNNY     30   6  36 W7        30.02F WCI  23
SALT LAKE CITY MOSUNNY   33   7  33 N8        30.04F WCI  26
TOOELE VALLEY  CLOUDY    32  12  43 N5        30.04S WCI  27
WENDOVER       CLOUDY    32   1  27 SE6       30.04F WCI  26
HEBER CITY     CLOUDY    28  -6  22 N8        29.94S WCI  20
WEST JORDAN    PTSUNNY   28  13  53 NW6       30.04S WCI  21

$$

UTZ011>015-024>027-052200-

CENTRAL/NORTHEAST UTAH

CITY           SKY/WX    TMP DP  RH WIND       PRES   REMARKS
PROVO AIRPORT  CLOUDY    31   9  39 N8        30.04S WCI  23
MOAB/CANYONLAN SUNNY     46  19  34 NW13      29.84F
DELTA          CLOUDY    32  -4  21 NW6       30.01F WCI  26
PRICE          MOSUNNY   34   9  35 NW12      29.88F WCI  25
RICHFIELD      MOSUNNY   37  16  41 NE14      29.98F WCI  29
ROOSEVELT      SUNNY     36  -8  15 W22G38    29.92R WCI  24
VERNAL         SUNNY     37  -7  15 W25G39    29.86R WCI  25

$$

UTZ013>016-019>022-027-052200-

SOUTHERN UTAH

CITY           SKY/WX    TMP DP  RH WIND       PRES   REMARKS
BRYCE CANYON   SUNNY     38   8  29 NW16G30   29.91F WCI  29
CEDAR CITY     SUNNY     44  18  35 VRB3      29.93F
MILFORD        SUNNY     39  11  31 N17       29.96F WCI  30
ST GEORGE      MOCLDY    52  19  28 S3        29.93F
HANKSVILLE     SUNNY     46  18  31 S5        29.87F
BLANDING       SUNNY     44  18  34 SE6       29.92S

$$

REGIONAL REPORTS     COLORADO/ARIZONA

CITY           SKY/WX    TMP DP  RH WIND       PRES   REMARKS
CRAIG, CO      CLOUDY    23   1  38 NW16G28   29.89R WCI  10
GRAND JUNCTION SUNNY     44  19  36 NW15      29.82S
RIFLE, CO      CLOUDY    42  22  44 NW18G24   29.77R
MONTROSE, CO   MOSUNNY   43  17  35 NW7       29.82F
CORTEZ, CO     SUNNY     47  17  30 W15       29.85F
COLORADO CITY    N/A     55  14  19 W12       29.94S
PAGE, AZ       SUNNY     50  16  25 CALM      29.85F
GRAND CANYON   SUNNY     48  16  27 W9G18     29.93F
KINGMAN, AZ    PTSUNNY   59   2  10 SW10      29.92F
FLAGSTAFF, AZ  SUNNY     45  14  28 S13       29.95S

$$

REGIONAL REPORTS    NEVADA/IDAHO/WYOMING

CITY           SKY/WX    TMP DP  RH WIND       PRES   REMARKS
LAS VEGAS, NV  PTSUNNY   58  14  17 VRB5      29.90F
ELY, NY        MOSUNNY   40  14  34 W12G18    29.93F WCI  33
ELKO, NV       PTSUNNY   33   7  33 W8        29.99F WCI  26
POCATELLO, ID  PTSUNNY   24  16  71 SW17      30.05F WCI  11
BURLEY, ID     SUNNY     26  15  63 W13       30.04F WCI  15
FORT BRIDGER,  MOCLDY    23  -2  34 NW12G17   29.92S WCI  11
EVANSTON, WY   SUNNY     20 -10  26 W16       29.89F WCI   6
ROCK SPRINGS,  MOSUNNY   18  -1  43 W20G31    29.86F WCI   2

$$




USA.gov is the U.S. government's official web portal to all federal, state and local government web resources and services.